TimeAKST,TemperatureF,Dew PointF,Humidity,Sea Level PressureIn,VisibilityMPH,Wind Direction,Wind SpeedMPH,Gust SpeedMPH,PrecipitationIn,Events,Conditions,WindDirDegrees,DateUTC
12:22 AM,-9.4,-18.4,65,29.78,1.5,WNW,4.6,-,0.00,Snow,Light Snow,290,2013-01-25 09:22:00
12:34 AM,-9.4,-18.4,65,29.78,2.0,West,5.8,-,0.00,Snow,Light Snow,280,2013-01-25 09:34:00
12:53 AM,-9.9,-18.0,68,29.87,2.0,WNW,4.6,-,0.00,Snow,Light Snow,290,2013-01-25 09:53:00
1:26 AM,-9.4,-18.4,65,29.78,2.5,WNW,4.6,-,0.00,Snow,Light Snow,290,2013-01-25 10:26:00
1:33 AM,-9.4,-18.4,65,29.79,3.0,WNW,4.6,-,0.01,Snow,Light Snow,290,2013-01-25 10:33:00
1:53 AM,-9.9,-18.0,68,29.87,3.0,WNW,4.6,-,0.01,Snow,Light Snow,290,2013-01-25 10:53:00
1:56 AM,-9.4,-18.4,65,29.78,2.5,WNW,3.5,-,0.00,Snow,Light Snow,290,2013-01-25 10:56:00
2:11 AM,-9.4,-18.4,65,29.79,1.8,WNW,4.6,-,0.00,Snow,Light Snow,290,2013-01-25 11:11:00
3:48 AM,-11.2,-18.4,70,29.78,2.0,WNW,5.8,-,0.00,Snow,Light Snow,300,2013-01-25 12:48:00
3:53 AM,-11.0,-18.9,68,29.87,2.5,WNW,3.5,-,0.00,Snow,Light Snow,300,2013-01-25 12:53:00
4:53 AM,-11.0,-18.9,68,29.86,2.0,WNW,6.9,-,0.00,Snow,Light Snow,290,2013-01-25 13:53:00
5:11 AM,-11.2,-20.2,64,29.77,4.0,WNW,8.1,-,0.00,Snow,Light Snow,290,2013-01-25 14:11:00
5:41 AM,-11.2,-20.2,64,29.77,10.0,WNW,4.6,-,0.00,,Mostly Cloudy,290,2013-01-25 14:41:00
5:53 AM,-11.9,-20.9,64,29.86,8.0,WNW,5.8,-,0.00,Snow,Light Snow,290,2013-01-25 14:53:00
6:53 AM,-11.9,-20.9,64,29.86,10.0,WNW,6.9,-,0.00,,Overcast,290,2013-01-25 15:53:00
7:21 AM,-11.2,-22.0,59,29.77,2.5,WNW,5.8,-,0.00,Snow,Light Snow,300,2013-01-25 16:21:00
7:29 AM,-11.2,-20.2,64,29.77,4.0,WNW,8.1,-,0.00,Snow,Light Snow,290,2013-01-25 16:29:00
7:53 AM,-11.9,-20.9,64,29.87,4.0,WNW,5.8,-,0.00,Snow,Light Snow,290,2013-01-25 16:53:00
8:01 AM,-11.2,-20.2,64,29.77,1.8,WNW,8.1,-,0.00,Snow,Light Snow,290,2013-01-25 17:01:00
8:12 AM,-11.2,-20.2,64,29.77,1.2,WNW,10.4,-,0.01,Snow,Light Snow,290,2013-01-25 17:12:00
8:31 AM,-13.0,-20.2,70,29.77,2.5,WNW,8.1,-,0.01,Snow,Light Snow,290,2013-01-25 17:31:00
8:40 AM,-11.2,-20.2,64,29.77,4.0,West,6.9,-,0.01,Snow,Light Snow,280,2013-01-25 17:40:00
8:53 AM,-11.9,-20.9,64,29.87,10.0,WNW,8.1,-,0.01,,Overcast,290,2013-01-25 17:53:00
9:42 AM,-11.2,-20.2,64,29.78,2.0,West,9.2,-,0.00,Snow,Light Snow,280,2013-01-25 18:42:00
9:53 AM,-13.0,-20.9,68,29.87,1.5,West,10.4,17.3,0.00,Snow,Light Snow,280,2013-01-25 18:53:00
10:02 AM,-13.0,-20.2,70,29.78,1.0,West,8.1,16.1,0.00,Snow,Light Snow,280,2013-01-25 19:02:00
10:27 AM,-13.0,-22.0,64,29.78,1.8,WNW,12.7,17.3,0.00,Snow,Light Snow,290,2013-01-25 19:27:00
10:35 AM,-13.0,-22.0,64,29.79,2.0,WNW,8.1,17.3,0.00,Snow,Light Snow,290,2013-01-25 19:35:00
10:48 AM,-13.0,-22.0,64,29.79,1.5,WNW,10.4,18.4,0.00,Snow,Light Snow,290,2013-01-25 19:48:00
10:53 AM,-13.0,-22.0,64,29.88,1.5,West,10.4,18.4,0.00,Snow,Light Snow,280,2013-01-25 19:53:00
11:32 AM,-13.0,-22.0,64,29.79,1.5,WNW,11.5,17.3,0.00,Snow,Light Snow,290,2013-01-25 20:32:00
11:51 AM,-13.0,-22.0,64,29.79,2.0,West,11.5,19.6,0.00,Snow,Light Snow,280,2013-01-25 20:51:00
11:53 AM,-13.0,-22.0,64,29.88,1.8,West,11.5,19.6,0.00,Snow,Light Snow,280,2013-01-25 20:53:00
12:38 PM,-14.8,-23.8,64,29.80,2.0,WNW,8.1,18.4,0.00,Snow,Light Snow,290,2013-01-25 21:38:00
12:53 PM,-14.1,-23.1,64,29.89,3.0,West,9.2,18.4,0.00,,Haze,280,2013-01-25 21:53:00
1:20 PM,-14.8,-23.8,64,29.80,2.5,WNW,10.4,18.4,0.00,Snow,Light Snow,290,2013-01-25 22:20:00
1:53 PM,-14.1,-23.1,64,29.89,3.0,WNW,10.4,-,0.00,Snow,Light Snow,290,2013-01-25 22:53:00
2:43 PM,-14.8,-23.8,64,29.81,2.0,WNW,10.4,17.3,0.00,Snow,Light Snow,290,2013-01-25 23:43:00
2:53 PM,-14.1,-24.0,61,29.91,2.0,WNW,10.4,18.4,0.00,Snow,Light Snow,290,2013-01-25 23:53:00
3:06 PM,-14.8,-23.8,64,29.81,2.0,WNW,10.4,18.4,0.00,Snow,Light Snow,290,2013-01-26 00:06:00
3:33 PM,-14.8,-23.8,64,29.82,3.0,West,11.5,17.3,0.00,,Haze,280,2013-01-26 00:33:00
3:50 PM,-14.8,-25.6,58,29.83,9.0,WNW,5.8,-,0.00,,Scattered Clouds,300,2013-01-26 00:50:00
3:53 PM,-15.0,-25.1,61,29.92,10.0,WNW,8.1,-,0.00,,Partly Cloudy,290,2013-01-26 00:53:00
4:53 PM,-17.0,-27.0,60,29.94,10.0,WNW,10.4,17.3,N/A,,Overcast,300,2013-01-26 01:53:00
5:53 PM,-17.0,-27.0,60,29.94,10.0,WNW,6.9,17.3,N/A,,Partly Cloudy,300,2013-01-26 02:53:00
6:53 PM,-17.0,-27.0,60,29.95,10.0,WNW,6.9,-,N/A,,Overcast,290,2013-01-26 03:53:00
7:53 PM,-17.0,-27.0,60,29.96,5.0,WNW,6.9,-,0.00,Snow,Light Snow,290,2013-01-26 04:53:00
8:10 PM,-16.6,-25.6,64,29.87,2.5,WNW,5.8,-,0.00,Snow,Light Snow,300,2013-01-26 05:10:00
8:53 PM,-17.0,-26.0,64,29.98,3.0,WNW,4.6,-,0.00,Snow,Light Snow,300,2013-01-26 05:53:00
9:53 PM,-17.0,-27.0,60,29.98,9.0,NW,6.9,-,0.00,,Overcast,310,2013-01-26 06:53:00
10:53 PM,-18.0,-27.9,61,29.99,7.0,WNW,6.9,-,N/A,,Overcast,290,2013-01-26 07:53:00
11:53 PM,-20.0,-29.9,60,30.01,10.0,WNW,5.8,-,N/A,,Mostly Cloudy,290,2013-01-26 08:53:00